Change the Weather History Date:

Wednesday, March 26, 2014

  Actual Average Record
Temperature  
Mean Temperature 74 °F -  
Max Temperature 77 °F - - ()
Min Temperature 71 °F - - ()
Cooling Degree Days 9    
Growing Degree Days 24 (Base 50)    
Moisture  
Dew Point 73 °F    
Average Humidity 94    
Maximum Humidity 100    
Minimum Humidity 86    
Precipitation  
Precipitation 3.11 in - - ()
Sea Level Pressure  
Sea Level Pressure 29.90 in    
Wind  
Wind Speed 8 mph ()    
Max Wind Speed 18 mph    
Max Gust Speed 25 mph    
Visibility 5.0 miles    
Events      
T = Trace of Precipitation, MM = Missing Value Source: Averaged Metar Reports

Daily Weather History Graph

Daily Weather History Graph

Search for Another Location

Airport or City:

Trip Planner

Search our weather history database for the weather conditions in past years. The results will help you decide how hot, cold, wet, or windy it might be!

Date:

Astronomy

Mar. 26, 2014 Rise Set
Actual Time 6:09 AM AEST 6:10 PM AEST
Civil Twilight 5:47 AM AEST 6:32 PM AEST
Nautical Twilight 5:21 AM AEST 6:57 PM AEST
Astronomical Twilight 4:56 AM AEST 7:23 PM AEST
Moon 1:15 AM AEST (3/26) 2:29 PM AEST (3/26)
Length of Visible Light 12h 44m
Length of Day
12h 00m
Waning Crescent, 28% of the Moon is Illuminated
Mar 26
Waning Crescent
Mar 31
New
Apr 7
First Quarter
Apr 15
Full
Apr 22
Last Quarter

Hourly Weather History & Observations

Time (AEST) Temp. Dew Point Humidity Pressure Visibility Wind Dir Wind Speed Gust Speed Precip Events Conditions
12:00 AM 73 °F 71 °F 93% 29.91 in 1 mi NNE 2.3 mph - -  
12:00 AM 73.4 °F 71.6 °F 94% 29.92 in 0.7 mi NNE 2.3 mph - N/A   Unknown
12:26 AM 73.4 °F 73.4 °F 100% 29.89 in 6.2 mi East 8.1 mph - N/A   Unknown
12:30 AM 73.4 °F 71.6 °F 94% 29.89 in 6.2 mi East 9.2 mph - N/A   Unknown
1:00 AM 75.2 °F 73.4 °F 94% 29.89 in 6.2 mi East 10.4 mph - N/A   Unknown
1:34 AM 75.2 °F 73.4 °F 94% 29.86 in 3.1 mi East 11.5 mph - N/A   Unknown
1:54 AM 73.4 °F 71.6 °F 94% 29.86 in 6.2 mi East 13.8 mph - N/A   Unknown
2:00 AM 75.2 °F 71.6 °F 89% 29.86 in 6.2 mi East 17.3 mph - N/A   Unknown
2:30 AM 75.2 °F 71.6 °F 89% 29.86 in 6.2 mi East 13.8 mph 25.3 mph N/A   Unknown
3:00 AM 74 °F 71 °F 89% 29.86 in - ENE 11.5 mph - -  
3:00 AM 73.4 °F 71.6 °F 94% 29.86 in 6.2 mi ENE 11.5 mph - N/A   Unknown
3:30 AM 75.2 °F 73.4 °F 94% 29.86 in 6.2 mi East 6.9 mph - N/A   Unknown
4:00 AM 75.2 °F 73.4 °F 94% 29.86 in 6.2 mi East 11.5 mph - N/A   Unknown
4:30 AM 77.0 °F 73.4 °F 89% 29.86 in 6.2 mi ENE 11.5 mph - N/A   Unknown
5:00 AM 77.0 °F 73.4 °F 89% 29.86 in 6.2 mi ENE 6.9 mph - N/A   Unknown
5:30 AM 75.2 °F 71.6 °F 89% 29.86 in 6.2 mi North 4.6 mph - N/A   Unknown
6:00 AM 75 °F 72 °F 86% 29.88 in - ENE 11.5 mph - -  
6:00 AM 75.2 °F 71.6 °F 89% 29.89 in 6.2 mi ENE 11.5 mph - N/A   Unknown
6:30 AM 75.2 °F 71.6 °F 89% 29.89 in 6.2 mi Calm Calm - N/A   Unknown
7:00 AM 73.4 °F 69.8 °F 88% 29.92 in 3.1 mi NNE 11.5 mph - N/A   Unknown
7:14 AM 73.4 °F 71.6 °F 94% 29.89 in 4.3 mi NNE 13.8 mph - N/A   Unknown
7:30 AM 73.4 °F 71.6 °F 94% 29.89 in 4.3 mi NNE 8.1 mph - N/A   Unknown
8:00 AM 75.2 °F 71.6 °F 89% 29.92 in 6.2 mi East 12.7 mph - N/A   Unknown
8:08 AM 75.2 °F 71.6 °F 89% 29.92 in 3.1 mi East 10.4 mph - N/A   Unknown
8:30 AM 75.2 °F 73.4 °F 94% 29.92 in - NNE 9.2 mph - N/A   Unknown
9:00 AM 76 °F 74 °F 91% 29.93 in - SE 4.6 mph - -  
9:00 AM 75.2 °F 73.4 °F 94% 29.92 in 6.2 mi SE 4.6 mph - N/A   Unknown
9:20 AM 75.2 °F 73.4 °F 94% 29.95 in 3.7 mi South 6.9 mph - N/A   Unknown
9:30 AM 75.2 °F 73.4 °F 94% 29.95 in 6.2 mi SSW 10.4 mph - N/A   Unknown
9:51 AM 75.2 °F 73.4 °F 94% 29.92 in 3.7 mi SSE 5.8 mph - N/A   Unknown
10:00 AM 73.4 °F 71.6 °F 94% 29.92 in 1.4 mi East 13.8 mph - N/A   Unknown
10:30 AM 73.4 °F 71.6 °F 94% 29.92 in 0.4 mi WNW 11.5 mph - N/A   Unknown
10:59 AM 75.2 °F 73.4 °F 94% 29.92 in 5.6 mi ENE 6.9 mph - N/A   Unknown
11:00 AM 75.2 °F 73.4 °F 94% 29.92 in 5.0 mi ENE 5.8 mph - N/A   Unknown
11:30 AM 75.2 °F 73.4 °F 94% 29.92 in 6.2 mi South 6.9 mph - N/A   Unknown
12:00 PM 75 °F 73 °F 93% 29.91 in 3 mi SW 5.8 mph - -  
12:00 PM 75.2 °F 73.4 °F 94% 29.92 in 2.8 mi SW 5.8 mph - N/A   Unknown
12:30 PM 75.2 °F 73.4 °F 94% 29.89 in 2.2 mi SSW 6.9 mph - N/A   Unknown
1:00 PM 75.2 °F 73.4 °F 94% 29.89 in 1.3 mi SW 8.1 mph - N/A   Unknown
1:30 PM 75.2 °F 73.4 °F 94% 29.89 in 6.2 mi SSE 5.8 mph - N/A   Unknown
1:32 PM 75.2 °F 73.4 °F 94% 29.89 in 6.2 mi South 5.8 mph - N/A   Unknown
2:00 PM 75.2 °F 73.4 °F 94% 29.86 in 1.4 mi West 6.9 mph - N/A   Unknown
2:30 PM 73.4 °F 73.4 °F 100% 29.86 in 5.0 mi NNE 5.8 mph - N/A   Unknown
2:35 PM 75.2 °F 73.4 °F 94% 29.89 in 6.2 mi NNE 6.9 mph - N/A   Unknown
3:00 PM 74 °F 73 °F 96% 29.88 in - East 15.0 mph - -  
3:00 PM 75.2 °F 73.4 °F 94% 29.89 in 6.2 mi East 15.0 mph - N/A   Unknown
3:32 PM 73.4 °F 73.4 °F 100% 29.89 in 3.7 mi SE 18.4 mph - N/A   Unknown
4:00 PM 71.6 °F 71.6 °F 100% 29.89 in 3.7 mi South 13.8 mph - N/A   Unknown
4:30 PM 71.6 °F 71.6 °F 100% 29.89 in 3.7 mi WNW 5.8 mph - N/A   Unknown
4:52 PM 73.4 °F 71.6 °F 94% 29.89 in 5.6 mi SSW 8.1 mph - N/A   Unknown
5:00 PM 73.4 °F 71.6 °F 94% 29.89 in 6.2 mi SSW 6.9 mph - N/A   Unknown
5:30 PM 73.4 °F 71.6 °F 94% 29.89 in 6.2 mi SSW 1.2 mph - N/A   Unknown
6:00 PM 73 °F 72 °F 98% 29.90 in - East 11.5 mph - -  
6:00 PM 73.4 °F 73.4 °F 100% 29.89 in 6.2 mi East 11.5 mph - N/A   Unknown
7:00 PM 73.4 °F 73.4 °F 100% 29.92 in 6.2 mi ESE 15.0 mph - N/A   Unknown
7:04 PM 73.4 °F 73.4 °F 100% 29.92 in 6.2 mi ESE 15.0 mph - N/A   Unknown
7:30 PM 73.4 °F 73.4 °F 100% 29.92 in 6.2 mi ESE 13.8 mph - N/A   Unknown
8:00 PM 75.2 °F 73.4 °F 94% 29.95 in 6.2 mi ESE 16.1 mph - N/A   Unknown
8:30 PM 75.2 °F 73.4 °F 94% 29.95 in 6.2 mi ESE 13.8 mph - N/A   Unknown
9:00 PM 75 °F 73 °F 92% 29.95 in - ESE 9.2 mph - -  
9:00 PM 75.2 °F 73.4 °F 94% 29.95 in 6.2 mi ESE 9.2 mph - N/A   Unknown
9:30 PM 75.2 °F 73.4 °F 94% 29.95 in 6.2 mi ESE 8.1 mph - N/A   Unknown
10:00 PM 75.2 °F 73.4 °F 94% 29.95 in 6.2 mi East 8.1 mph - N/A   Unknown
10:30 PM 75.2 °F 73.4 °F 94% 29.95 in 6.2 mi ESE 6.9 mph - N/A   Unknown
11:00 PM 75.2 °F 73.4 °F 94% 29.95 in 6.2 mi NE 5.8 mph - N/A   Unknown
11:30 PM 75.2 °F 73.4 °F 94% 29.95 in 6.2 mi NNE 3.5 mph - N/A   Unknown